Flag for Ireland Weather past 2 weeks in Waterford, Ireland

Now
46 °F

Broken clouds.


Feels Like: 38 °F
Forecast: 38 / 52 °F
Wind: 23 mph from Southwest

Location: Cork Airport

Current Time: Apr 28, 2015 at 5:59:47 PM

Latest Report: Apr 28, 2015 at 5:30 PM


Visibility: N/A

Pressure: 29.92 "Hg

Humidity: 76%

Dew point: 39 °F

Location of WaterfordLocation

Historic Weather in Waterford — Graph

°F

Waterford temperature yesterday

Maximum temperature yesterday: 48 °F (at 11:30 AM)
Minimum temperature yesterday: 36 °F (at 3:30 AM)
Average temperature yesterday: 41 °F

Past Weeks' High & Low Weather Summary

 TemperatureHumidityPressure
High59 °F (Apr 17, 2:30 PM)100% (Apr 13, 10:00 PM)30.57 "Hg (Apr 13, 10:00 PM)
Low34 °F (Apr 28, 2:30 AM)30% (Apr 26, 3:30 PM)29.59 "Hg (Apr 25, 3:30 AM)
Average48 °F78%30.10 "Hg
* Reported Apr 13 4:00 PM — Apr 28 4:30 PM, Waterford, Weather by CustomWeather, © 2015

Note: Actual official high and low records may vary slightly from our data, if they occured in-between our weather recording intervals... More about our weather records

Advertising

Waterford weather history for previous 24 hours

 ConditionsComfort  
Time TempWeatherWind HumidityBarometerVisibility
4:30 PM
Tue, Apr 28
46 °FBroken clouds.20 mph82%29.95 "HgN/A
4:00 PM45 °FSprinkles. Broken clouds.17 mph87%29.95 "HgN/A
3:30 PM45 °FBroken clouds.16 mph87%29.98 "HgN/A
3:00 PM43 °FPartly sunny.13 mph93%29.98 "HgN/A
2:30 PM46 °FSprinkles. Broken clouds.17 mph76%29.98 "HgN/A
2:00 PM46 °FSprinkles. Partly sunny.20 mph71%29.98 "HgN/A
1:30 PM46 °FPartly sunny.17 mph76%30.01 "HgN/A
1:00 PM46 °FBroken clouds.13 mph82%30.01 "HgN/A
12:30 PM46 °FPartly sunny.12 mph76%30.04 "HgN/A
12:00 PM45 °FScattered showers. Broken clouds.13 mph93%30.04 "HgN/A
11:30 AM46 °FBroken clouds.13 mph66%30.04 "HgN/A
11:00 AM48 °FBroken clouds.15 mph62%30.04 "HgN/A
10:30 AM46 °FBroken clouds.14 mph66%30.04 "HgN/A
10:00 AM45 °FPartly sunny.13 mph71%30.04 "HgN/A
9:30 AM43 °FPartly sunny.10 mph76%30.04 "HgN/A
9:00 AM41 °FScattered clouds.9 mph81%30.04 "HgN/A
8:30 AM39 °FPassing clouds.7 mph87%30.04 "HgN/A
8:00 AM37 °FPassing clouds.6 mph87%30.04 "HgN/A
7:30 AM36 °FPassing clouds.8 mph87%30.04 "HgN/A
7:00 AM36 °FPassing clouds.7 mph87%30.01 "HgN/A
6:30 AM36 °FPassing clouds.8 mph87%30.01 "HgN/A
6:00 AM34 °FPassing clouds.7 mph87%30.01 "HgN/A
5:30 AM34 °FPassing clouds.7 mph93%30.01 "HgN/A
5:00 AM36 °FPassing clouds.8 mph87%30.01 "HgN/A
4:30 AM36 °FPassing clouds.9 mph87%30.01 "HgN/A
4:00 AM36 °FPassing clouds.5 mph87%30.01 "HgN/A
3:30 AM36 °FPassing clouds.8 mph87%30.01 "HgN/A
3:00 AM34 °FPassing clouds.8 mph93%30.01 "HgN/A
2:30 AM34 °FPassing clouds.9 mph93%30.01 "HgN/A
2:00 AM36 °FPassing clouds.8 mph87%30.01 "HgN/A
1:30 AM36 °FPassing clouds.8 mph93%30.01 "HgN/A
1:00 AM36 °FPassing clouds.12 mph93%30.01 "HgN/A
12:30 AM36 °FPassing clouds.9 mph93%30.01 "HgN/A
12:00 AM37 °FSprinkles. Passing clouds.12 mph87%30.01 "HgN/A
11:30 PM
Mon, Apr 27
37 °FPassing clouds.10 mph87%30.01 "HgN/A
11:00 PM37 °FPassing clouds.13 mph87%29.98 "HgN/A
10:30 PM37 °FPassing clouds.14 mph87%29.98 "HgN/A
10:00 PM39 °FPassing clouds.16 mph75%29.98 "HgN/A
9:30 PM39 °FPassing clouds.15 mph75%29.98 "HgN/A
9:00 PM39 °FPassing clouds.14 mph81%29.95 "HgN/A
8:30 PM41 °FPassing clouds.12 mph70%29.95 "HgN/A
8:00 PM41 °FPassing clouds.13 mph76%29.95 "HgN/A
7:30 PM41 °FPassing clouds.18 mph70%29.95 "HgN/A
7:00 PM43 °FPassing clouds.15 mph61%29.92 "HgN/A
6:30 PM43 °FScattered clouds.22 mph61%29.92 "HgN/A
6:00 PM46 °FScattered clouds.21 mph53%29.92 "HgN/A
5:30 PM46 °FScattered clouds.17 mph53%29.92 "HgN/A
5:00 PM46 °FScattered clouds.20 mph50%29.92 "HgN/A
Weather by CustomWeather, © 2015

See weather overviewHow to use our weather pages